Year,Month,Day,Hour,Minute,Value (Times are PST for temperature in C)
2017,01,05,00,00,-5.40
2017,01,05,00,01,-5.30
2017,01,05,00,02,-5.30
2017,01,05,00,03,-5.30
2017,01,05,00,04,-5.30
2017,01,05,00,05,-5.30
2017,01,05,00,06,-5.30
2017,01,05,00,07,-5.30
2017,01,05,00,08,-5.30
2017,01,05,00,09,-5.40
2017,01,05,00,10,-5.40
2017,01,05,00,11,-5.40
2017,01,05,00,12,-5.40
2017,01,05,00,13,-5.40
2017,01,05,00,14,-5.30
2017,01,05,00,15,-5.30
2017,01,05,00,16,-5.30
2017,01,05,00,17,-5.30
2017,01,05,00,18,-5.30
2017,01,05,00,19,-5.30
2017,01,05,00,20,-5.30
2017,01,05,00,21,-5.40
2017,01,05,00,22,-5.40
2017,01,05,00,23,-5.40
2017,01,05,00,24,-5.40
2017,01,05,00,25,-5.40
2017,01,05,00,26,-5.40
2017,01,05,00,27,-5.40
2017,01,05,00,28,-5.40
2017,01,05,00,29,-5.30
2017,01,05,00,30,-5.30
2017,01,05,00,31,-5.30
2017,01,05,00,32,-5.30
2017,01,05,00,33,-5.30
2017,01,05,00,34,-5.40
2017,01,05,00,35,-5.40
2017,01,05,00,36,-5.40
2017,01,05,00,37,-5.40
2017,01,05,00,38,-5.40
2017,01,05,00,39,-5.40
2017,01,05,00,40,-5.40
2017,01,05,00,41,-5.40
2017,01,05,00,42,-5.40
2017,01,05,00,43,-5.40
2017,01,05,00,44,-5.40
2017,01,05,00,45,-5.40
2017,01,05,00,46,-5.30
2017,01,05,00,47,-5.30
2017,01,05,00,48,-5.30
2017,01,05,00,49,-5.30
2017,01,05,00,50,-5.30
2017,01,05,00,51,-5.20
2017,01,05,00,52,-5.30
2017,01,05,00,53,-5.30
2017,01,05,00,54,-5.30
2017,01,05,00,55,-5.30
2017,01,05,00,56,-5.40
2017,01,05,00,57,-5.40
2017,01,05,00,58,-5.40
2017,01,05,00,59,-5.40
2017,01,05,01,00,-5.50
2017,01,05,01,01,-5.50
2017,01,05,01,02,-5.50
2017,01,05,01,03,-5.60
2017,01,05,01,04,-5.60
2017,01,05,01,05,-5.60
2017,01,05,01,06,-5.60
2017,01,05,01,07,-5.70
2017,01,05,01,08,-5.70
2017,01,05,01,09,-5.70
2017,01,05,01,10,-5.70
2017,01,05,01,11,-5.70
2017,01,05,01,12,-5.70
2017,01,05,01,13,-5.70
2017,01,05,01,14,-5.80
2017,01,05,01,15,-5.80
2017,01,05,01,16,-5.80
2017,01,05,01,17,-5.80
2017,01,05,01,18,-5.80
2017,01,05,01,19,-5.90
2017,01,05,01,20,-5.90
2017,01,05,01,21,-5.90
2017,01,05,01,22,-5.90
2017,01,05,01,23,-5.90
2017,01,05,01,24,-5.90
2017,01,05,01,25,-5.90
2017,01,05,01,26,-5.90
2017,01,05,01,27,-5.90
2017,01,05,01,28,-5.90
2017,01,05,01,29,-6.00
2017,01,05,01,30,-6.00
2017,01,05,01,31,-6.00
2017,01,05,01,32,-6.00
2017,01,05,01,33,-6.00
2017,01,05,01,34,-6.00
2017,01,05,01,35,-6.00
2017,01,05,01,36,-6.00
2017,01,05,01,37,-6.00
2017,01,05,01,38,-6.00
2017,01,05,01,39,-6.00
2017,01,05,01,40,-6.00
2017,01,05,01,41,-6.00
2017,01,05,01,42,-6.00
2017,01,05,01,43,-6.00
2017,01,05,01,44,-6.00
2017,01,05,01,45,-5.90
2017,01,05,01,46,-5.90
2017,01,05,01,47,-5.90
2017,01,05,01,48,-5.90
2017,01,05,01,49,-5.90
2017,01,05,01,50,-5.90
2017,01,05,01,51,-5.90
2017,01,05,01,52,-5.90
2017,01,05,01,53,-5.90
2017,01,05,01,54,-5.90
2017,01,05,01,55,-6.00
2017,01,05,01,56,-6.00
2017,01,05,01,57,-6.00
2017,01,05,01,58,-6.00
2017,01,05,01,59,-6.00
2017,01,05,02,00,-6.00
2017,01,05,02,01,-6.10
2017,01,05,02,02,-6.10
2017,01,05,02,03,-6.10
2017,01,05,02,04,-6.10
2017,01,05,02,05,-6.10
2017,01,05,02,06,-6.10
2017,01,05,02,07,-6.10
2017,01,05,02,08,-6.20
2017,01,05,02,09,-6.20
2017,01,05,02,10,-6.20
2017,01,05,02,11,-6.20
2017,01,05,02,12,-6.10
2017,01,05,02,13,-6.10
2017,01,05,02,14,-6.10
2017,01,05,02,15,-6.10
2017,01,05,02,16,-6.00
2017,01,05,02,17,-6.00
2017,01,05,02,18,-6.00
2017,01,05,02,19,-6.10
2017,01,05,02,20,-6.10
2017,01,05,02,21,-6.10
2017,01,05,02,22,-6.10
2017,01,05,02,23,-6.10
2017,01,05,02,24,-6.10
2017,01,05,02,25,-6.10
2017,01,05,02,26,-6.10
2017,01,05,02,27,-6.10
2017,01,05,02,28,-6.10
2017,01,05,02,29,-6.10
2017,01,05,02,30,-6.10
2017,01,05,02,31,-6.10
2017,01,05,02,32,-6.10
2017,01,05,02,33,-6.20
2017,01,05,02,34,-6.20
2017,01,05,02,35,-6.20
2017,01,05,02,36,-6.20
2017,01,05,02,37,-6.10
2017,01,05,02,38,-6.10
2017,01,05,02,39,-6.10
2017,01,05,02,40,-6.10
2017,01,05,02,41,-6.10
2017,01,05,02,42,-6.10
2017,01,05,02,43,-6.10
2017,01,05,02,44,-6.20
2017,01,05,02,45,-6.20
2017,01,05,02,46,-6.20
2017,01,05,02,47,-6.20
2017,01,05,02,48,-6.20
2017,01,05,02,49,-6.10
2017,01,05,02,50,-6.10
2017,01,05,02,51,-6.10
2017,01,05,02,52,-6.10
2017,01,05,02,53,-6.10
2017,01,05,02,54,-6.10
2017,01,05,02,55,-6.20
2017,01,05,02,56,-6.20
2017,01,05,02,57,-6.20
2017,01,05,02,58,-6.20
2017,01,05,02,59,-6.20
2017,01,05,03,00,-6.20
2017,01,05,03,01,-6.20
2017,01,05,03,02,-6.30
2017,01,05,03,03,-6.30
2017,01,05,03,04,-6.30
2017,01,05,03,05,-6.30
2017,01,05,03,06,-6.30
2017,01,05,03,07,-6.30
2017,01,05,03,08,-6.30
2017,01,05,03,09,-6.30
2017,01,05,03,10,-6.30
2017,01,05,03,11,-6.30
2017,01,05,03,12,-6.30
2017,01,05,03,13,-6.40
2017,01,05,03,14,-6.40
2017,01,05,03,15,-6.40
2017,01,05,03,16,-6.40
2017,01,05,03,17,-6.40
2017,01,05,03,18,-6.40
2017,01,05,03,19,-6.40
2017,01,05,03,20,-6.40
2017,01,05,03,21,-6.40
2017,01,05,03,22,-6.40
2017,01,05,03,23,-6.40
2017,01,05,03,24,-6.40
2017,01,05,03,25,-6.40
2017,01,05,03,26,-6.40
2017,01,05,03,27,-6.40
2017,01,05,03,28,-6.40
2017,01,05,03,29,-6.40
2017,01,05,03,30,-6.30
2017,01,05,03,31,-6.30
2017,01,05,03,32,-6.30
2017,01,05,03,33,-6.30
2017,01,05,03,34,-6.20
2017,01,05,03,35,-6.30
2017,01,05,03,36,-6.30
2017,01,05,03,37,-6.30
2017,01,05,03,38,-6.30
2017,01,05,03,39,-6.40
2017,01,05,03,40,-6.40
2017,01,05,03,41,-6.40
2017,01,05,03,42,-6.40
2017,01,05,03,43,-6.40
2017,01,05,03,44,-6.50
2017,01,05,03,45,-6.50
2017,01,05,03,46,-6.40
2017,01,05,03,47,-6.50
2017,01,05,03,48,-6.50
2017,01,05,03,49,-6.40
2017,01,05,03,50,-6.50
2017,01,05,03,51,-6.50
2017,01,05,03,52,-6.50
2017,01,05,03,53,-6.50
2017,01,05,03,54,-6.50
2017,01,05,03,55,-6.40
2017,01,05,03,56,-6.40
2017,01,05,03,57,-6.40
2017,01,05,03,58,-6.50
2017,01,05,03,59,-6.50
2017,01,05,04,00,-6.50
2017,01,05,04,01,-6.60
2017,01,05,04,02,-6.60
2017,01,05,04,03,-6.60
2017,01,05,04,04,-6.60
2017,01,05,04,05,-6.60
2017,01,05,04,06,-6.60
2017,01,05,04,07,-6.70
2017,01,05,04,08,-6.60
2017,01,05,04,09,-6.60
2017,01,05,04,10,-6.60
2017,01,05,04,11,-6.60
2017,01,05,04,12,-6.60
2017,01,05,04,13,-6.50
2017,01,05,04,14,-6.60
2017,01,05,04,15,-6.50
2017,01,05,04,16,-6.60
2017,01,05,04,17,-6.60
2017,01,05,04,18,-6.60
2017,01,05,04,19,-6.60
2017,01,05,04,20,-6.60
2017,01,05,04,21,-6.60
2017,01,05,04,22,-6.60
2017,01,05,04,23,-6.60
2017,01,05,04,24,-6.50
2017,01,05,04,25,-6.50
2017,01,05,04,26,-6.40
2017,01,05,04,27,-6.40
2017,01,05,04,28,-6.40
2017,01,05,04,29,-6.40
2017,01,05,04,30,-6.30
2017,01,05,04,31,-6.30
2017,01,05,04,32,-6.30
2017,01,05,04,33,-6.30
2017,01,05,04,34,-6.30
2017,01,05,04,35,-6.30
2017,01,05,04,36,-6.30
2017,01,05,04,37,-6.30
2017,01,05,04,38,-6.30
2017,01,05,04,39,-6.30
2017,01,05,04,40,-6.30
2017,01,05,04,41,-6.30
2017,01,05,04,42,-6.30
2017,01,05,04,43,-6.20
2017,01,05,04,44,-6.20
2017,01,05,04,45,-6.20
2017,01,05,04,46,-6.20
2017,01,05,04,47,-6.20
2017,01,05,04,48,-6.20
2017,01,05,04,49,-6.20
2017,01,05,04,50,-6.20
2017,01,05,04,51,-6.20
2017,01,05,04,52,-6.20
2017,01,05,04,53,-6.20
2017,01,05,04,54,-6.20
2017,01,05,04,55,-6.10
2017,01,05,04,56,-6.10
2017,01,05,04,57,-6.00
2017,01,05,04,58,-6.00
2017,01,05,04,59,-6.00
2017,01,05,05,00,-6.00
2017,01,05,05,01,-6.00
2017,01,05,05,02,-6.00
2017,01,05,05,03,-6.00
2017,01,05,05,04,-6.00
2017,01,05,05,05,-6.00
2017,01,05,05,06,-6.00
2017,01,05,05,07,-6.00
2017,01,05,05,08,-5.90
2017,01,05,05,09,-5.90
2017,01,05,05,10,-5.90
2017,01,05,05,11,-5.90
2017,01,05,05,12,-5.90
2017,01,05,05,13,-5.90
2017,01,05,05,14,-5.80
2017,01,05,05,15,-5.80
2017,01,05,05,16,-5.80
2017,01,05,05,17,-5.80
2017,01,05,05,18,-5.80
2017,01,05,05,19,-5.80
2017,01,05,05,20,-5.80
2017,01,05,05,21,-5.80
2017,01,05,05,22,-5.80
2017,01,05,05,23,-5.80
2017,01,05,05,24,-5.80
2017,01,05,05,25,-5.80
2017,01,05,05,26,-5.80
2017,01,05,05,27,-5.80
2017,01,05,05,28,-5.80
2017,01,05,05,29,-5.80
2017,01,05,05,30,-5.70
2017,01,05,05,31,-5.70
2017,01,05,05,32,-5.60
2017,01,05,05,33,-5.60
2017,01,05,05,34,-5.60
2017,01,05,05,35,-5.50
2017,01,05,05,36,-5.60
2017,01,05,05,37,-5.60
2017,01,05,05,38,-5.60
2017,01,05,05,39,-5.60
2017,01,05,05,40,-5.60
2017,01,05,05,41,-5.60
2017,01,05,05,42,-5.70
2017,01,05,05,43,-5.70
2017,01,05,05,44,-5.70
2017,01,05,05,45,-5.80
2017,01,05,05,46,-5.80
2017,01,05,05,47,-5.80
2017,01,05,05,48,-5.80
2017,01,05,05,49,-5.80
2017,01,05,05,50,-5.80
2017,01,05,05,51,-5.80
2017,01,05,05,52,-5.80
2017,01,05,05,53,-5.80
2017,01,05,05,54,-5.90
2017,01,05,05,55,-5.90
2017,01,05,05,56,-5.90
2017,01,05,05,57,-5.90
2017,01,05,05,58,-5.90
2017,01,05,05,59,-5.90
2017,01,05,06,00,-5.90
2017,01,05,06,01,-5.90
2017,01,05,06,02,-5.90
2017,01,05,06,03,-5.90
2017,01,05,06,04,-5.90
2017,01,05,06,05,-5.90
2017,01,05,06,06,-5.90
2017,01,05,06,07,-5.90
2017,01,05,06,08,-5.90
2017,01,05,06,09,-6.00
2017,01,05,06,10,-6.00
2017,01,05,06,11,-6.00
2017,01,05,06,12,-6.00
2017,01,05,06,13,-6.00
2017,01,05,06,14,-6.00
2017,01,05,06,15,-6.00
2017,01,05,06,16,-6.00
2017,01,05,06,17,-5.90
2017,01,05,06,18,-5.90
2017,01,05,06,19,-5.90
2017,01,05,06,20,-5.90
2017,01,05,06,21,-5.90
2017,01,05,06,22,-5.90
2017,01,05,06,23,-5.90
2017,01,05,06,24,-6.00
2017,01,05,06,25,-6.00
2017,01,05,06,26,-6.00
2017,01,05,06,27,-6.10
2017,01,05,06,28,-6.10
2017,01,05,06,29,-6.10
2017,01,05,06,30,-6.00
2017,01,05,06,31,-6.10
2017,01,05,06,32,-6.10
2017,01,05,06,33,-6.10
2017,01,05,06,34,-6.10
2017,01,05,06,35,-6.20
2017,01,05,06,36,-6.20
2017,01,05,06,37,-6.20
2017,01,05,06,38,-6.20
2017,01,05,06,39,-6.20
2017,01,05,06,40,-6.20
2017,01,05,06,41,-6.10
2017,01,05,06,42,-6.10
2017,01,05,06,43,-6.10
2017,01,05,06,44,-6.10
2017,01,05,06,45,-6.10
2017,01,05,06,46,-6.20
2017,01,05,06,47,-6.20
2017,01,05,06,48,-6.20
2017,01,05,06,49,-6.20
2017,01,05,06,50,-6.20
2017,01,05,06,51,-6.20
2017,01,05,06,52,-6.30
2017,01,05,06,53,-6.30
2017,01,05,06,54,-6.30
2017,01,05,06,55,-6.30
2017,01,05,06,56,-6.30
2017,01,05,06,57,-6.30
2017,01,05,06,58,-6.30
2017,01,05,06,59,-6.30
2017,01,05,07,00,-6.30
2017,01,05,07,01,-6.20
2017,01,05,07,02,-6.20
2017,01,05,07,03,-6.20
2017,01,05,07,04,-6.20
2017,01,05,07,05,-6.20
2017,01,05,07,06,-6.20
2017,01,05,07,07,-6.10
2017,01,05,07,08,-6.10
2017,01,05,07,09,-6.10
2017,01,05,07,10,-6.10
2017,01,05,07,11,-6.10
2017,01,05,07,12,-6.10
2017,01,05,07,13,-6.00
2017,01,05,07,14,-6.00
2017,01,05,07,15,-6.00
2017,01,05,07,16,-5.90
2017,01,05,07,17,-5.90
2017,01,05,07,18,-5.90
2017,01,05,07,19,-5.90
2017,01,05,07,20,-5.80
2017,01,05,07,21,-5.80
2017,01,05,07,22,-5.80
2017,01,05,07,23,-5.70
2017,01,05,07,24,-5.70
2017,01,05,07,25,-5.60
2017,01,05,07,26,-5.50
2017,01,05,07,27,-5.40
2017,01,05,07,28,-5.40
2017,01,05,07,29,-5.40
2017,01,05,07,30,-5.40
2017,01,05,07,31,-5.30
2017,01,05,07,32,-5.30
2017,01,05,07,33,-5.30
2017,01,05,07,34,-5.30
2017,01,05,07,35,-5.30
2017,01,05,07,36,-5.30
2017,01,05,07,37,-5.30
2017,01,05,07,38,-5.30
2017,01,05,07,39,-5.30
2017,01,05,07,40,-5.30
2017,01,05,07,41,-5.20
2017,01,05,07,42,-5.20
2017,01,05,07,43,-5.20
2017,01,05,07,44,-5.20
2017,01,05,07,45,-5.20
2017,01,05,07,46,-5.20
2017,01,05,07,47,-5.20
2017,01,05,07,48,-5.20
2017,01,05,07,49,-5.10
2017,01,05,07,50,-5.10
2017,01,05,07,51,-5.10
2017,01,05,07,52,-5.10
2017,01,05,07,53,-5.10
2017,01,05,07,54,-5.10
2017,01,05,07,55,-5.10
2017,01,05,07,56,-5.00
2017,01,05,07,57,-5.00
2017,01,05,07,58,-5.00
2017,01,05,07,59,-5.00
2017,01,05,08,00,-5.00
2017,01,05,08,01,-5.00
2017,01,05,08,02,-4.90
2017,01,05,08,03,-4.90
2017,01,05,08,04,-4.80
2017,01,05,08,05,-4.80
2017,01,05,08,06,-4.70
2017,01,05,08,07,-4.70
2017,01,05,08,08,-4.70
2017,01,05,08,09,-4.70
2017,01,05,08,10,-4.80
2017,01,05,08,11,-4.80
2017,01,05,08,12,-4.80
2017,01,05,08,13,-4.90
2017,01,05,08,14,-4.90
2017,01,05,08,15,-4.90
2017,01,05,08,16,-4.90
2017,01,05,08,17,-5.00
2017,01,05,08,18,-5.00
2017,01,05,08,19,-5.00
2017,01,05,08,20,-5.00
2017,01,05,08,21,-5.00
2017,01,05,08,22,-5.00
2017,01,05,08,23,-5.00
2017,01,05,08,24,-5.00
2017,01,05,08,25,-5.00
2017,01,05,08,26,-4.90
2017,01,05,08,27,-4.90
2017,01,05,08,28,-4.80
2017,01,05,08,29,-4.80
2017,01,05,08,30,-4.80
2017,01,05,08,31,-4.80
2017,01,05,08,32,-4.70
2017,01,05,08,33,-4.70
2017,01,05,08,34,-4.70
2017,01,05,08,35,-4.70
2017,01,05,08,36,-4.60
2017,01,05,08,37,-4.60
2017,01,05,08,38,-4.50
2017,01,05,08,39,-4.50
2017,01,05,08,40,-4.50
2017,01,05,08,41,-4.40
2017,01,05,08,42,-4.50
2017,01,05,08,43,-4.50
2017,01,05,08,44,-4.60
2017,01,05,08,45,-4.60
2017,01,05,08,46,-4.60
2017,01,05,08,47,-4.70
2017,01,05,08,48,-4.70
2017,01,05,08,49,-4.70
2017,01,05,08,50,-4.70
2017,01,05,08,51,-4.70
2017,01,05,08,52,-4.70
2017,01,05,08,53,-4.70
2017,01,05,08,54,-4.80
2017,01,05,08,55,-4.70
2017,01,05,08,56,-4.70
2017,01,05,08,57,-4.70
2017,01,05,08,58,-4.70
2017,01,05,08,59,-4.70
2017,01,05,09,00,-4.70
2017,01,05,09,01,-4.70
2017,01,05,09,02,-4.70
2017,01,05,09,03,-4.70
2017,01,05,09,04,-4.70
2017,01,05,09,05,-4.60
2017,01,05,09,06,-4.60
2017,01,05,09,07,-4.60
2017,01,05,09,08,-4.60
2017,01,05,09,09,-4.50
2017,01,05,09,10,-4.50
2017,01,05,09,11,-4.50
2017,01,05,09,12,-4.50
2017,01,05,09,13,-4.50
2017,01,05,09,14,-4.40
2017,01,05,09,15,-4.40
2017,01,05,09,16,-4.40
2017,01,05,09,17,-4.40
2017,01,05,09,18,-4.40
2017,01,05,09,19,-4.30
2017,01,05,09,20,-4.30
2017,01,05,09,21,-4.30
2017,01,05,09,22,-4.30
2017,01,05,09,23,-4.20
2017,01,05,09,24,-4.20
2017,01,05,09,25,-4.20
2017,01,05,09,26,-4.20
2017,01,05,09,27,-4.10
2017,01,05,09,28,-4.10
2017,01,05,09,29,-4.10
2017,01,05,09,30,-4.10
2017,01,05,09,31,-4.00
2017,01,05,09,32,-4.00
2017,01,05,09,33,-3.90
2017,01,05,09,34,-3.90
2017,01,05,09,35,-3.80
2017,01,05,09,36,-3.80
2017,01,05,09,37,-3.70
2017,01,05,09,38,-3.60
2017,01,05,09,39,-3.60
2017,01,05,09,40,-3.50
2017,01,05,09,41,-3.40
2017,01,05,09,42,-3.40
2017,01,05,09,43,-3.30
2017,01,05,09,44,-3.20
2017,01,05,09,45,-3.10
2017,01,05,09,46,-3.00
2017,01,05,09,47,-2.90
2017,01,05,09,48,-2.90
2017,01,05,09,49,-2.80
2017,01,05,09,50,-2.80
2017,01,05,09,51,-2.80
2017,01,05,09,52,-2.80
2017,01,05,09,53,-2.80
2017,01,05,09,54,-2.80
2017,01,05,09,55,-2.80
2017,01,05,09,56,-2.70
2017,01,05,09,57,-2.70
2017,01,05,09,58,-2.70
2017,01,05,09,59,-2.60
2017,01,05,10,00,-2.60
2017,01,05,10,01,-2.50
2017,01,05,10,02,-2.40
2017,01,05,10,03,-2.30
2017,01,05,10,04,-2.30
2017,01,05,10,05,-2.20
2017,01,05,10,06,-2.10
2017,01,05,10,07,-2.10
2017,01,05,10,08,-2.10
2017,01,05,10,09,-2.00
2017,01,05,10,10,-2.00
2017,01,05,10,11,-1.90
2017,01,05,10,12,-1.90
2017,01,05,10,13,-1.80
2017,01,05,10,14,-1.80
2017,01,05,10,15,-1.80
2017,01,05,10,16,-1.70
2017,01,05,10,17,-1.70
2017,01,05,10,18,-1.70
2017,01,05,10,19,-1.70
2017,01,05,10,20,-1.70
2017,01,05,10,21,-1.70
2017,01,05,10,22,-1.70
2017,01,05,10,23,-1.70
2017,01,05,10,24,-1.70
2017,01,05,10,25,-1.60
2017,01,05,10,26,-1.60
2017,01,05,10,27,-1.60
2017,01,05,10,28,-1.60
2017,01,05,10,29,-1.60
2017,01,05,10,30,-1.50
2017,01,05,10,31,-1.50
2017,01,05,10,32,-1.50
2017,01,05,10,33,-1.40
2017,01,05,10,34,-1.40
2017,01,05,10,35,-1.40
2017,01,05,10,36,-1.40
2017,01,05,10,37,-1.40
2017,01,05,10,38,-1.30
2017,01,05,10,39,-1.30
2017,01,05,10,40,-1.30
2017,01,05,10,41,-1.30
2017,01,05,10,42,-1.20
2017,01,05,10,43,-1.20
2017,01,05,10,44,-1.20
2017,01,05,10,45,-1.10
2017,01,05,10,46,-1.10
2017,01,05,10,47,-1.00
2017,01,05,10,48,-1.00
2017,01,05,10,49,-0.90
2017,01,05,10,50,-0.90
2017,01,05,10,51,-0.90
2017,01,05,10,52,-0.80
2017,01,05,10,53,-0.80
2017,01,05,10,54,-0.70
2017,01,05,10,55,-0.70
2017,01,05,10,56,-0.60
2017,01,05,10,57,-0.60
2017,01,05,10,58,-0.50
2017,01,05,10,59,-0.40
2017,01,05,11,00,-0.40
2017,01,05,11,01,-0.30
2017,01,05,11,02,-0.20
2017,01,05,11,03,-0.20
2017,01,05,11,04,-0.10
2017,01,05,11,05,-0.10
2017,01,05,11,06,0.00
2017,01,05,11,07,0.10
2017,01,05,11,08,0.10
2017,01,05,11,09,0.10
2017,01,05,11,10,0.20
2017,01,05,11,11,0.20
2017,01,05,11,12,0.20
2017,01,05,11,13,0.30
2017,01,05,11,14,0.30
2017,01,05,11,15,0.30
2017,01,05,11,16,0.30
2017,01,05,11,17,0.40
2017,01,05,11,18,0.40
2017,01,05,11,19,0.40
2017,01,05,11,20,0.50
2017,01,05,11,21,0.50
2017,01,05,11,22,0.60
2017,01,05,11,23,0.60
2017,01,05,11,24,0.60
2017,01,05,11,25,0.60
2017,01,05,11,26,0.70
2017,01,05,11,27,0.70
2017,01,05,11,28,0.70
2017,01,05,11,29,0.80
2017,01,05,11,30,0.80
2017,01,05,11,31,0.90
2017,01,05,11,32,0.90
2017,01,05,11,33,1.00
2017,01,05,11,34,1.00
2017,01,05,11,35,1.10
2017,01,05,11,36,1.10
2017,01,05,11,37,1.10
2017,01,05,11,38,1.20
2017,01,05,11,39,1.20
2017,01,05,11,40,1.30
2017,01,05,11,41,1.40
2017,01,05,11,42,1.50
2017,01,05,11,43,1.50
2017,01,05,11,44,1.60
2017,01,05,11,45,1.70
2017,01,05,11,46,1.70
2017,01,05,11,47,1.70
2017,01,05,11,48,1.80
2017,01,05,11,49,1.80
2017,01,05,11,50,1.90
2017,01,05,11,51,1.90
2017,01,05,11,52,2.00
2017,01,05,11,53,2.10
2017,01,05,11,54,2.20
2017,01,05,11,55,2.30
2017,01,05,11,56,2.30
2017,01,05,11,57,2.40
2017,01,05,11,58,2.50
2017,01,05,11,59,2.60
2017,01,05,12,00,2.60
2017,01,05,12,01,2.70
2017,01,05,12,02,2.70
2017,01,05,12,03,2.70
2017,01,05,12,04,2.70
2017,01,05,12,05,2.70
2017,01,05,12,06,2.80
2017,01,05,12,07,2.80
2017,01,05,12,08,2.80
2017,01,05,12,09,2.80
2017,01,05,12,10,2.80
2017,01,05,12,11,2.80
2017,01,05,12,12,2.80
2017,01,05,12,13,2.90
2017,01,05,12,14,2.90
2017,01,05,12,15,2.90
2017,01,05,12,16,3.00
2017,01,05,12,17,3.00
2017,01,05,12,18,3.10
2017,01,05,12,19,3.10
2017,01,05,12,20,3.10
2017,01,05,12,21,3.10
2017,01,05,12,22,3.20
2017,01,05,12,23,3.10
2017,01,05,12,24,3.10
2017,01,05,12,25,3.20
2017,01,05,12,26,3.20
2017,01,05,12,27,3.20
2017,01,05,12,28,3.10
2017,01,05,12,29,3.10
2017,01,05,12,30,3.10
2017,01,05,12,31,3.10
2017,01,05,12,32,3.10
2017,01,05,12,33,3.10
2017,01,05,12,34,3.20
2017,01,05,12,35,3.20
2017,01,05,12,36,3.10
2017,01,05,12,37,3.10
2017,01,05,12,38,3.10
2017,01,05,12,39,3.00
2017,01,05,12,40,3.00
2017,01,05,12,41,2.90
2017,01,05,12,42,2.90
2017,01,05,12,43,2.90
2017,01,05,12,44,2.90
2017,01,05,12,45,2.90
2017,01,05,12,46,2.90
2017,01,05,12,47,2.90
2017,01,05,12,48,2.90
2017,01,05,12,49,2.90
2017,01,05,12,50,2.90
2017,01,05,12,51,2.80
2017,01,05,12,52,2.80
2017,01,05,12,53,2.80
2017,01,05,12,54,2.90
2017,01,05,12,55,2.90
2017,01,05,12,56,2.90
2017,01,05,12,57,2.90
2017,01,05,12,58,2.90
2017,01,05,12,59,2.90
2017,01,05,13,00,2.90
2017,01,05,13,01,2.90
2017,01,05,13,02,2.90
2017,01,05,13,03,2.80
2017,01,05,13,04,2.80
2017,01,05,13,05,2.80
2017,01,05,13,06,2.80
2017,01,05,13,07,2.80
2017,01,05,13,08,2.80
2017,01,05,13,09,2.80
2017,01,05,13,10,2.80
2017,01,05,13,11,2.80
2017,01,05,13,12,2.80
2017,01,05,13,13,2.80
2017,01,05,13,14,2.80
2017,01,05,13,15,2.90
2017,01,05,13,16,2.90
2017,01,05,13,17,3.00
2017,01,05,13,18,3.00
2017,01,05,13,19,3.10
2017,01,05,13,20,3.10
2017,01,05,13,21,3.10
2017,01,05,13,22,3.10
2017,01,05,13,23,3.10
2017,01,05,13,24,3.10
2017,01,05,13,25,3.10
2017,01,05,13,26,3.10
2017,01,05,13,27,3.10
2017,01,05,13,28,3.10
2017,01,05,13,29,3.10
2017,01,05,13,30,3.10
2017,01,05,13,31,3.10
2017,01,05,13,32,3.10
2017,01,05,13,33,3.10
2017,01,05,13,34,3.10
2017,01,05,13,35,3.10
2017,01,05,13,36,3.10
2017,01,05,13,37,3.10
2017,01,05,13,38,3.10
2017,01,05,13,39,3.10
2017,01,05,13,40,3.10
2017,01,05,13,41,3.10
2017,01,05,13,42,3.10
2017,01,05,13,43,3.10
2017,01,05,13,44,3.00
2017,01,05,13,45,3.00
2017,01,05,13,46,2.90
2017,01,05,13,47,2.90
2017,01,05,13,48,2.90
2017,01,05,13,49,2.80
2017,01,05,13,50,2.80
2017,01,05,13,51,2.80
2017,01,05,13,52,2.80
2017,01,05,13,53,2.80
2017,01,05,13,54,2.80
2017,01,05,13,55,2.80
2017,01,05,13,56,2.80
2017,01,05,13,57,2.80
2017,01,05,13,58,2.80
2017,01,05,13,59,2.80
2017,01,05,14,00,2.80
2017,01,05,14,01,2.90
2017,01,05,14,02,2.90
2017,01,05,14,03,2.90
2017,01,05,14,04,2.90
2017,01,05,14,05,2.90
2017,01,05,14,06,3.00
2017,01,05,14,07,3.00
2017,01,05,14,08,3.00
2017,01,05,14,09,3.00
2017,01,05,14,10,3.00
2017,01,05,14,11,3.10
2017,01,05,14,12,3.10
2017,01,05,14,13,3.10
2017,01,05,14,14,3.00
2017,01,05,14,15,3.00
2017,01,05,14,16,3.00
2017,01,05,14,17,3.00
2017,01,05,14,18,3.00
2017,01,05,14,19,3.00
2017,01,05,14,20,3.00
2017,01,05,14,21,3.00
2017,01,05,14,22,3.00
2017,01,05,14,23,3.00
2017,01,05,14,24,3.00
2017,01,05,14,25,3.00
2017,01,05,14,26,3.00
2017,01,05,14,27,3.00
2017,01,05,14,28,2.90
2017,01,05,14,29,2.90
2017,01,05,14,30,2.90
2017,01,05,14,31,2.90
2017,01,05,14,32,2.90
2017,01,05,14,33,2.90
2017,01,05,14,34,2.90
2017,01,05,14,35,2.90
2017,01,05,14,36,2.90
2017,01,05,14,37,2.90
2017,01,05,14,38,2.90
2017,01,05,14,39,2.90
2017,01,05,14,40,2.90
2017,01,05,14,41,2.90
2017,01,05,14,42,2.80
2017,01,05,14,43,2.80
2017,01,05,14,44,2.80
2017,01,05,14,45,2.80
2017,01,05,14,46,2.80
2017,01,05,14,47,2.80
2017,01,05,14,48,2.80
2017,01,05,14,49,2.80
2017,01,05,14,50,2.80
2017,01,05,14,51,2.80
2017,01,05,14,52,2.90
2017,01,05,14,53,2.90
2017,01,05,14,54,2.90
2017,01,05,14,55,2.90
2017,01,05,14,56,2.90
2017,01,05,14,57,2.90
2017,01,05,14,58,2.90
2017,01,05,14,59,2.90
2017,01,05,15,00,2.90
2017,01,05,15,01,2.80
2017,01,05,15,02,2.80
2017,01,05,15,03,2.80
2017,01,05,15,04,2.80
2017,01,05,15,05,2.80
2017,01,05,15,06,2.80
2017,01,05,15,07,2.80
2017,01,05,15,08,2.80
2017,01,05,15,09,2.80
2017,01,05,15,10,2.80
2017,01,05,15,11,2.80
2017,01,05,15,12,2.80
2017,01,05,15,13,2.80
2017,01,05,15,14,2.80
2017,01,05,15,15,2.80
2017,01,05,15,16,2.80
2017,01,05,15,17,2.80
2017,01,05,15,18,2.80
2017,01,05,15,19,2.90
2017,01,05,15,20,2.90
2017,01,05,15,21,2.90
2017,01,05,15,22,2.90
2017,01,05,15,23,2.90
2017,01,05,15,24,2.90
2017,01,05,15,25,2.90
2017,01,05,15,26,2.90
2017,01,05,15,27,2.90
2017,01,05,15,28,2.90
2017,01,05,15,29,2.90
2017,01,05,15,30,2.90
2017,01,05,15,31,2.90
2017,01,05,15,32,2.90
2017,01,05,15,33,2.90
2017,01,05,15,34,2.90
2017,01,05,15,35,2.90
2017,01,05,15,36,2.90
2017,01,05,15,37,2.90
2017,01,05,15,38,2.90
2017,01,05,15,39,2.90
2017,01,05,15,40,2.90
2017,01,05,15,41,2.90
2017,01,05,15,42,2.90
2017,01,05,15,43,2.90
2017,01,05,15,44,3.00
2017,01,05,15,45,3.00
2017,01,05,15,46,3.00
2017,01,05,15,47,3.00
2017,01,05,15,48,3.00
2017,01,05,15,49,3.00
2017,01,05,15,50,3.10
2017,01,05,15,51,3.10
2017,01,05,15,52,3.10
2017,01,05,15,53,3.20
2017,01,05,15,54,3.20
2017,01,05,15,55,3.10
2017,01,05,15,56,3.10
2017,01,05,15,57,3.10
2017,01,05,15,58,3.10
2017,01,05,15,59,3.10
2017,01,05,16,00,3.10
2017,01,05,16,01,3.10
2017,01,05,16,02,3.10
2017,01,05,16,03,3.10
2017,01,05,16,04,3.00
2017,01,05,16,05,3.00
2017,01,05,16,06,2.90
2017,01,05,16,07,2.90
2017,01,05,16,08,2.90
2017,01,05,16,09,2.80
2017,01,05,16,10,2.80
2017,01,05,16,11,2.80
2017,01,05,16,12,2.70
2017,01,05,16,13,2.70
2017,01,05,16,14,2.70
2017,01,05,16,15,2.60
2017,01,05,16,16,2.60
2017,01,05,16,17,2.60
2017,01,05,16,18,2.60
2017,01,05,16,19,2.50
2017,01,05,16,20,2.50
2017,01,05,16,21,2.50
2017,01,05,16,22,2.40
2017,01,05,16,23,2.40
2017,01,05,16,24,2.40
2017,01,05,16,25,2.40
2017,01,05,16,26,2.40
2017,01,05,16,27,2.30
2017,01,05,16,28,2.30
2017,01,05,16,29,2.30
2017,01,05,16,30,2.30
2017,01,05,16,31,2.30
2017,01,05,16,32,2.20
2017,01,05,16,33,2.20
2017,01,05,16,34,2.20
2017,01,05,16,35,2.10
2017,01,05,16,36,2.10
2017,01,05,16,37,2.10
2017,01,05,16,38,2.10
2017,01,05,16,39,2.00
2017,01,05,16,40,2.00
2017,01,05,16,41,2.00
2017,01,05,16,42,1.90
2017,01,05,16,43,1.90
2017,01,05,16,44,1.90
2017,01,05,16,45,1.90
2017,01,05,16,46,1.80
2017,01,05,16,47,1.80
2017,01,05,16,48,1.80
2017,01,05,16,49,1.80
2017,01,05,16,50,1.80
2017,01,05,16,51,1.80
2017,01,05,16,52,1.70
2017,01,05,16,53,1.70
2017,01,05,16,54,1.70
2017,01,05,16,55,1.70
2017,01,05,16,56,1.60
2017,01,05,16,57,1.60
2017,01,05,16,58,1.60
2017,01,05,16,59,1.60
2017,01,05,17,00,1.60
2017,01,05,17,01,1.60
2017,01,05,17,02,1.50
2017,01,05,17,03,1.50
2017,01,05,17,04,1.50
2017,01,05,17,05,1.50
2017,01,05,17,06,1.50
2017,01,05,17,07,1.50
2017,01,05,17,08,1.50
2017,01,05,17,09,1.50
2017,01,05,17,10,1.50
2017,01,05,17,11,1.40
2017,01,05,17,12,1.40
2017,01,05,17,13,1.40
2017,01,05,17,14,1.40
2017,01,05,17,15,1.40
2017,01,05,17,16,1.30
2017,01,05,17,17,1.30
2017,01,05,17,18,1.30
2017,01,05,17,19,1.30
2017,01,05,17,20,1.30
2017,01,05,17,21,1.20
2017,01,05,17,22,1.20
2017,01,05,17,23,1.20
2017,01,05,17,24,1.20
2017,01,05,17,25,1.20
2017,01,05,17,26,1.20
2017,01,05,17,27,1.10
2017,01,05,17,28,1.10
2017,01,05,17,29,1.10
2017,01,05,17,30,1.10
2017,01,05,17,31,1.10
2017,01,05,17,32,1.10
2017,01,05,17,33,1.00
2017,01,05,17,34,1.00
2017,01,05,17,35,1.00
2017,01,05,17,36,0.90